[[{"header":{"parameterUnit":"m.s-1","parameterCategory":1,"la1":30.2991,"la2":30.254,"lo1":-89.0895,"lo2":-89.0444,"dy":0.0017,"dx":0.0017,"nx":28,"ny":28,"refTime":"2023-09-07T03:00:00:Z","depth":0,"parameterNumber":2,"parameterNumberName":"U-component_of_WINDS"},"data":[0,0,0,0,0,0,0,0,0,0,0,0,0,0,0,0,0,0,0,0,0,0,0,0,0,0,0,0,0,0,0,0,0,0,0,0,0,0,0,0,0,0,0,0,0,0,0,0,0,0,0,0,0,0,0,0,0,0,2.6233,2.6234,0,2.6304,2.6305,2.6306,2.6307,2.6306,2.6305,2.6304,2.6374,2.6376,2.6379,0,0,0,0,0,0,0,0,0,0,0,0,0,2.6094,2.6097,2.6233,2.6234,2.6235,2.6304,2.6305,2.6306,2.6307,2.6306,2.6305,2.6304,2.6373,2.6376,2.6379,0,0,0,0,0,0,0,0,0,0,0,0,0,2.6159,2.6098,2.6233,2.6244,2.6246,2.6304,2.6305,2.6306,2.6307,2.6306,2.6304,2.6303,2.6372,2.6376,2.638,2.6431,0,0,2.6392,2.6394,0,0,0,0,0,0,0,0,2.6155,2.6164,2.6241,2.6243,2.6245,2.6295,2.6282,2.6348,2.6307,2.6284,2.6304,2.6302,2.6348,2.6354,2.637,2.6434,2.6437,2.6392,2.6395,2.6396,2.6398,0,0,0,0,0,0,0,2.6151,2.6161,2.6261,2.6243,2.6245,2.6244,2.6251,2.6294,2.6323,2.6286,2.6286,2.6294,2.6349,2.6367,2.6372,2.6438,2.6392,2.6396,2.6398,2.64,2.6545,2.6547,0,0,0,0,0,0,2.6144,2.6157,2.6259,2.6263,2.6196,2.6247,2.6256,2.6281,2.6322,2.6327,2.6295,2.6294,2.636,2.6367,2.6375,2.6435,2.6396,2.64,2.6402,2.6544,2.6546,2.6547,0,0,0,0,0,0,2.6142,2.6154,2.6256,2.621,2.6223,2.6251,2.6279,2.6283,2.63,2.633,2.6334,2.6308,2.636,2.6369,2.6417,2.6438,2.6402,2.6406,2.6542,2.6544,2.6546,2.6559,0,0,0,0,0,0,2.6138,2.6153,2.6174,2.6211,2.6226,2.6298,2.628,2.6285,2.6307,2.6306,2.6343,2.6348,2.6359,2.6411,2.6421,2.6443,2.6409,2.654,2.6543,2.6546,2.6557,2.6561,2.6565,0,0,0,0,0,2.6133,2.6174,2.6175,2.6187,2.6253,2.63,2.6308,2.6322,2.6309,2.6329,2.6348,2.6346,2.6434,2.6415,2.6427,2.645,2.6539,2.6542,2.6545,2.6555,2.656,2.6565,0,0,0,0,0,0,2.6138,2.6179,2.618,2.6236,2.6264,2.63,2.6326,2.6327,2.6359,2.6357,2.6371,2.638,2.6427,2.6444,2.6422,2.6501,2.6485,2.6491,2.6488,2.6494,2.6498,2.6492,2.6412,0,0,0,0,0,2.6146,2.6182,2.6216,2.6261,2.6275,2.6298,2.6319,2.6327,2.6357,2.6369,2.6391,2.6419,2.6452,2.6474,2.6507,2.656,2.6566,2.6581,2.6586,2.6589,2.6593,2.6619,2.6626,2.6558,2.6558,2.6558,0,0,2.6162,2.6189,2.6211,2.6263,2.6286,2.6321,2.6308,2.6347,2.6372,2.6374,2.642,2.6437,2.6469,2.6519,2.6542,2.6535,2.6613,2.6593,2.6596,2.6598,2.6623,2.663,2.6635,2.656,2.656,2.6559,0,0,2.6209,2.6234,2.6274,2.6297,2.6332,2.6347,2.6356,2.6391,2.6403,2.645,2.6451,2.6481,2.654,2.6562,2.6581,2.6634,2.6633,2.6644,2.6666,2.6691,2.6697,2.6701,2.6718,2.6724,2.6649,2.6649,2.6649,0,2.6224,2.6278,2.6293,2.6331,2.6353,2.6357,2.6396,2.6417,2.6461,2.6475,2.6466,2.6538,2.6561,2.6614,2.6627,2.6643,2.6652,2.664,2.6695,2.67,2.6704,2.672,2.6727,2.665,2.665,2.665,2.665,0,2.6294,2.6331,2.6359,2.6401,2.6426,2.6464,2.6483,2.6506,2.6512,2.6527,2.6573,2.6599,2.6636,2.665,2.6656,2.6704,2.6698,2.6692,2.6676,2.6712,2.6727,2.6733,2.6651,2.6651,2.6651,2.665,0,0,2.6346,2.6395,2.6405,2.6423,2.6462,2.649,2.6527,2.6564,2.6583,2.6613,2.6643,2.6691,2.6686,2.6707,2.6715,2.6738,2.6775,2.6729,2.673,2.6735,2.6827,2.6829,2.6836,2.6775,2.6777,2.6778,2.6823,0,2.6395,2.6462,2.6476,2.6534,2.6567,2.6571,2.6603,2.6629,2.6644,2.6673,2.6689,2.6722,2.6714,2.6726,2.6749,2.6766,2.6794,2.6763,2.6801,2.6802,2.6791,2.6845,2.6848,2.689,2.683,2.6831,2.6831,0,2.6462,2.6493,2.6554,2.6586,2.66,2.6629,2.6663,2.6691,2.672,2.6729,2.6752,2.6758,2.6794,2.6778,2.6827,2.6806,2.6822,2.6833,2.6835,2.6837,2.6818,2.6846,2.6904,2.6909,2.6841,2.6841,2.684,0,2.649,2.6548,2.6591,2.6607,2.6646,2.6666,2.6683,2.6711,2.6731,2.676,2.6773,2.6807,2.6824,2.6849,2.6862,2.6849,2.691,2.6894,2.6916,2.6916,2.6927,2.6926,2.6986,2.6942,2.6942,2.6941,2.6941,0,2.6542,2.6579,2.6604,2.663,2.667,2.6685,2.6724,2.6741,2.6765,2.6794,2.6799,2.6825,2.6842,2.687,2.6881,2.6919,2.6928,2.6934,2.6936,2.6933,2.6931,2.6942,2.6939,2.6943,2.6943,2.6942,2.6942,0,2.6581,2.6599,2.6646,2.6679,2.6689,2.6716,2.6744,2.6769,2.6783,2.6819,2.6828,2.6851,2.6884,2.69,2.6941,2.6948,2.699,2.6992,2.6981,2.6981,2.7001,2.6998,2.7068,2.7077,2.7029,2.7029,2.703,0,2.6612,2.664,2.6676,2.6695,2.6713,2.6745,2.6766,2.6781,2.6802,2.6836,2.6856,2.689,2.6917,2.697,2.6989,2.702,2.702,2.7043,2.7025,2.702,2.7018,2.7015,2.7017,2.7045,2.7046,2.7046,2.7046,0,2.6664,2.6671,2.6702,2.6735,2.676,2.6787,2.6813,2.6829,2.6848,2.6871,2.6905,2.6927,2.6968,2.7,2.7033,2.7048,2.705,2.7052,2.7058,2.7054,2.7045,2.7048,2.6987,2.705,2.705,2.7049,2.7049,2.7049,2.6698,2.6722,2.6751,2.6784,2.6805,2.6829,2.6854,2.6871,2.69,2.6936,2.6943,2.6978,2.7004,2.7048,2.7065,2.7091,2.7086,2.7096,2.7098,2.71,2.7099,2.7043,2.7098,2.7098,2.7097,2.7097,2.7097,0,2.6748,2.6767,2.6797,2.6834,2.6859,2.686,2.6888,2.6909,2.694,2.6965,2.6992,2.703,2.7061,2.7082,2.7114,2.7131,2.7132,2.7138,2.7136,2.7139,2.7103,2.7094,2.7136,2.7136,2.7136,2.7136,2.7136,2.7136,2.6778,2.6818,2.6828,2.6878,2.6896,2.6932,2.6948,2.6969,2.6989,2.7031,2.7057,2.7071,2.7094,2.7126,2.7154,2.7159,2.7169,2.7175,2.718,2.7146,2.7142,2.7138,2.7129,2.7178,2.7178,2.7213,2.7214,2.7214]},{"header":{"parameterUnit":"m.s-1","parameterCategory":1,"la1":30.2991,"la2":30.254,"lo1":-89.0895,"lo2":-89.0444,"dy":0.0017,"dx":0.0017,"nx":28,"ny":28,"refTime":"2023-09-07T03:00:00:Z","depth":0,"parameterNumber":3,"parameterNumberName":"V-component_of_WINDS"},"data":[0,0,0,0,0,0,0,0,0,0,0,0,0,0,0,0,0,0,0,0,0,0,0,0,0,0,0,0,0,0,0,0,0,0,0,0,0,0,0,0,0,0,0,0,0,0,0,0,0,0,0,0,0,0,0,0,0,0,1.7275,1.7276,0,1.7348,1.7349,1.735,1.7366,1.7365,1.7364,1.7364,1.7436,1.7438,1.7441,0,0,0,0,0,0,0,0,0,0,0,0,0,1.7145,1.7147,1.7275,1.7276,1.7277,1.7348,1.7349,1.735,1.7366,1.7365,1.7364,1.7364,1.7435,1.7438,1.7441,0,0,0,0,0,0,0,0,0,0,0,0,0,1.7208,1.7148,1.7275,1.7293,1.7296,1.7348,1.7349,1.735,1.7366,1.7365,1.7364,1.7363,1.7434,1.7438,1.7441,1.7479,0,0,1.7452,1.7454,0,0,0,0,0,0,0,0,1.7204,1.7213,1.729,1.7292,1.7295,1.7347,1.733,1.7393,1.7366,1.7339,1.7364,1.7363,1.7407,1.7413,1.7428,1.7483,1.7486,1.7453,1.7455,1.7457,1.7458,0,0,0,0,0,0,0,1.72,1.721,1.7304,1.7291,1.7294,1.7297,1.7305,1.7342,1.7376,1.7341,1.7343,1.7351,1.7408,1.7425,1.743,1.7487,1.7453,1.7456,1.7458,1.746,1.7575,1.7576,0,0,0,0,0,0,1.7193,1.7206,1.7301,1.7306,1.7247,1.73,1.7309,1.7331,1.7376,1.7382,1.7352,1.7352,1.7419,1.7426,1.7432,1.7479,1.7457,1.746,1.7462,1.7574,1.7575,1.7576,0,0,0,0,0,0,1.719,1.7201,1.7298,1.7256,1.7269,1.7303,1.7328,1.7333,1.7349,1.7384,1.739,1.7363,1.7418,1.7427,1.7467,1.7482,1.7462,1.7465,1.7573,1.7574,1.7575,1.7573,0,0,0,0,0,0,1.7186,1.72,1.7216,1.7257,1.7271,1.7333,1.7328,1.7335,1.7356,1.7356,1.7396,1.7401,1.7418,1.7462,1.7471,1.7486,1.7468,1.7572,1.7573,1.7575,1.7572,1.7574,1.7576,0,0,0,0,0,1.7182,1.7212,1.7217,1.7228,1.7292,1.7334,1.7342,1.7362,1.7357,1.7372,1.7394,1.74,1.7479,1.7466,1.7476,1.7493,1.7571,1.7573,1.7575,1.7571,1.7574,1.7576,0,0,0,0,0,0,1.7172,1.7218,1.7223,1.7268,1.7297,1.7337,1.7357,1.7365,1.7395,1.7394,1.7417,1.7425,1.7464,1.7482,1.7467,1.7531,1.7524,1.7528,1.7518,1.7521,1.7522,1.7517,1.7471,0,0,0,0,0,1.7175,1.7207,1.7245,1.728,1.7295,1.7323,1.7343,1.7355,1.7386,1.7398,1.7423,1.7452,1.7483,1.7503,1.7533,1.7574,1.7582,1.7591,1.7593,1.7594,1.7597,1.7619,1.7623,1.7582,1.7582,1.7582,0,0,1.7182,1.7211,1.7229,1.7279,1.7303,1.7334,1.7334,1.7367,1.739,1.7403,1.7442,1.7461,1.7495,1.7535,1.7554,1.7552,1.761,1.7597,1.7598,1.76,1.7621,1.7625,1.7629,1.7584,1.7584,1.7583,0,0,1.721,1.7235,1.7267,1.7291,1.7328,1.7346,1.7354,1.7392,1.7405,1.7445,1.7456,1.7482,1.7536,1.7558,1.7577,1.7612,1.7618,1.7621,1.7631,1.7652,1.7655,1.7658,1.7669,1.7673,1.7624,1.7624,1.7624,0,1.7213,1.7261,1.7283,1.7315,1.7336,1.735,1.7382,1.7403,1.7447,1.7461,1.7458,1.7524,1.7547,1.7593,1.7601,1.7616,1.7624,1.7617,1.7653,1.7656,1.7659,1.767,1.7675,1.7624,1.7624,1.7624,1.7624,0,1.7263,1.7296,1.7318,1.736,1.7384,1.7416,1.744,1.7461,1.7471,1.749,1.7529,1.7557,1.7593,1.7605,1.7615,1.7651,1.7649,1.7649,1.7643,1.7663,1.7674,1.7678,1.7624,1.7624,1.7624,1.7624,0,0,1.7288,1.7341,1.7349,1.7368,1.7408,1.7433,1.7465,1.7501,1.7518,1.7547,1.7573,1.7617,1.7618,1.7638,1.7651,1.767,1.7694,1.7668,1.7669,1.7671,1.7734,1.7733,1.7737,1.7698,1.7699,1.7699,1.7731,0,1.732,1.7379,1.7398,1.7446,1.7476,1.7488,1.7516,1.7542,1.756,1.7587,1.7606,1.7636,1.7635,1.7648,1.7666,1.7687,1.7707,1.7685,1.7721,1.7722,1.7712,1.7743,1.7743,1.7771,1.7735,1.7736,1.7736,0,1.7366,1.7397,1.7448,1.7483,1.7496,1.7521,1.7554,1.758,1.761,1.7621,1.7644,1.7655,1.7687,1.7679,1.7722,1.7707,1.7723,1.7735,1.7736,1.774,1.773,1.7747,1.7781,1.7785,1.7743,1.7743,1.7742,0,1.7378,1.7431,1.7469,1.7485,1.7527,1.7544,1.7562,1.7591,1.7611,1.764,1.7652,1.7684,1.7701,1.7725,1.7744,1.7736,1.7785,1.7778,1.7794,1.7794,1.7804,1.7803,1.784,1.7815,1.7815,1.7815,1.7814,0,1.7412,1.7442,1.7474,1.7497,1.7531,1.7552,1.7585,1.7603,1.7629,1.7654,1.7667,1.769,1.7714,1.774,1.7754,1.7787,1.7795,1.7804,1.7808,1.7803,1.7802,1.7813,1.7812,1.7816,1.7815,1.7815,1.7815,0,1.7431,1.7454,1.7495,1.7532,1.7541,1.7564,1.7595,1.7617,1.7635,1.7667,1.7675,1.7703,1.7734,1.7755,1.7794,1.7804,1.784,1.7843,1.783,1.7831,1.7846,1.7844,1.7891,1.7897,1.7868,1.7869,1.7869,0,1.7451,1.7474,1.7513,1.7532,1.755,1.758,1.76,1.7621,1.7641,1.7676,1.7693,1.7725,1.7752,1.7801,1.7824,1.7854,1.7857,1.7872,1.7862,1.7856,1.7857,1.7855,1.7857,1.7873,1.7873,1.7873,1.7874,0,1.7483,1.7493,1.7522,1.7555,1.7579,1.7606,1.7632,1.7646,1.7671,1.7693,1.7725,1.7746,1.7787,1.7818,1.785,1.7867,1.7874,1.7876,1.7882,1.7877,1.7868,1.7872,1.7833,1.7875,1.7875,1.7875,1.7875,1.7875,1.7503,1.7524,1.7555,1.7586,1.7608,1.7633,1.7655,1.7675,1.7703,1.7738,1.7748,1.7781,1.7809,1.7852,1.787,1.7895,1.7894,1.7902,1.7903,1.7905,1.7904,1.7864,1.7901,1.7901,1.7901,1.7901,1.7901,0,1.7535,1.7556,1.7584,1.7621,1.7646,1.7651,1.768,1.77,1.7729,1.7755,1.7781,1.7817,1.7847,1.7872,1.7902,1.7918,1.7921,1.7925,1.7924,1.7927,1.7904,1.7897,1.7921,1.7921,1.7921,1.7921,1.7921,1.7921,1.7555,1.7591,1.7604,1.765,1.767,1.7703,1.7719,1.7741,1.7762,1.7802,1.7827,1.7843,1.7868,1.79,1.7927,1.7934,1.7944,1.7946,1.7953,1.7931,1.7929,1.7927,1.792,1.7949,1.7949,1.7974,1.7974,1.7974]}]]